GW2682 Weather Reports


time (UTC)temp
F
wind
direction
speed
knots
gust
knots
rain 1hr
in
rain 24hr
in
rain mn
in
humidity
%
barometer
mb
20260506212024 57 220 1.7 13.9 0.00 0.38 0.38 89 1005.6
20260506211524 59 198 9.6 13.9 0.00 0.38 0.38 90 1005.4
20260506211013 59 252 7.0 11.3 0.00 0.38 0.38 90 1005.2
20260506210512 59 247 7.0 13.9 0.00 0.38 0.38 90 1005.3
20260506210014 59 238 5.2 13.9 0.00 0.38 0.38 90 1005.3
20260506205513 59 241 7.8 13.0 0.00 0.40 0.38 90 1005.3
20260506205014 59 213 7.0 13.9 0.00 0.40 0.38 90 1005.1
20260506204513 59 256 7.8 13.9 0.00 0.40 0.38 90 1005.1
20260506204013 59 233 6.1 10.4 0.00 0.40 0.38 90 1005.2
20260506203513 59 266 6.1 12.2 0.00 0.40 0.38 90 1005.1
20260506203014 59 245 7.8 12.2 0.00 0.40 0.38 90 1005.1
20260506202513 59 273 7.8 12.2 0.00 0.40 0.38 90 1005.2
20260506202013 59 245 7.8 13.0 0.00 0.40 0.38 90 1005.2
20260506201524 59 226 7.0 13.0 0.00 0.40 0.38 90 1005.2
20260506201014 59 247 6.1 13.0 0.00 0.40 0.38 91 1005.3
20260506200513 59 203 5.2 12.2 0.00 0.40 0.38 91 1005.3
20260506200013 59 235 6.1 12.2 0.00 0.40 0.38 91 1005.2
20260506195513 59 258 6.1 14.8 0.00 0.40 0.38 91 1005.3
20260506195013 59 256 9.6 12.2 0.00 0.40 0.38 91 1005.3
20260506194514 59 271 5.2 12.2 0.00 0.40 0.38 91 1005.3
20260506194015 59 252 7.8 12.2 0.00 0.40 0.38 91 1005.5
20260506193514 59 259 5.2 13.0 0.00 0.40 0.38 92 1005.4
20260506193014 59 241 7.0 15.6 0.00 0.40 0.38 92 1005.3
20260506192514 59 226 7.8 15.6 0.00 0.40 0.38 92 1005.4
20260506192014 58 261 7.0 11.3 0.00 0.40 0.38 92 1005.6
20260506191527 58 291 7.8 16.5 0.00 0.40 0.38 93 1005.6
20260506191026 58 246 9.6 16.5 0.00 0.40 0.38 93 1005.6
20260506190515 58 234 8.7 13.0 0.01 0.40 0.38 93 1005.7
20260506190014 58 257 4.3 13.0 0.01 0.40 0.38 93 1005.6
20260506185514 58 237 5.2 10.4 0.01 0.40 0.38 93 1005.7
20260506185015 58 236 6.1 12.2 0.01 0.40 0.38 93 1005.7
20260506184514 58 219 7.8 12.2 0.01 0.40 0.38 93 1005.7
20260506184014 58 275 6.1 11.3 0.02 0.40 0.38 94 1005.8
20260506183514 58 231 6.1 17.4 0.02 0.40 0.38 94 1005.8
20260506183014 58 245 3.5 17.4 0.02 0.40 0.38 94 1005.8
20260506182515 58 226 5.2 12.2 0.03 0.40 0.38 94 1005.8
20260506182015 58 254 7.0 11.3 0.03 0.40 0.38 94 1005.9
20260506181526 58 314 5.2 12.2 0.03 0.40 0.38 94 1005.8
20260506181014 57 233 6.1 13.0 0.03 0.40 0.38 94 1006.0
20260506180514 57 228 7.8 13.0 0.02 0.39 0.37 94 1006.1
20260506180015 57 244 7.8 12.2 0.03 0.39 0.37 94 1006.1
20260506175526 57 231 7.0 12.2 0.03 0.39 0.37 94 1006.2
20260506175014 57 209 8.7 16.5 0.03 0.39 0.37 94 1006.3
20260506174515 57 245 8.7 16.5 0.04 0.39 0.37 94 1006.2
20260506174015 57 215 3.5 11.3 0.03 0.38 0.36 94 1006.2
20260506173514 57 210 6.1 11.3 0.03 0.38 0.36 94 1006.3
20260506173015 57 205 5.2 10.4 0.03 0.38 0.36 94 1006.3
20260506172516 57 244 4.3 15.6 0.02 0.37 0.35 93 1006.2
20260506172015 57 215 7.0 15.6 0.02 0.37 0.35 93 1006.2
20260506171514 57 217 5.2 12.2 0.02 0.37 0.35 93 1006.2
20260506171028 57 219 6.1 12.2 0.03 0.37 0.35 93 1006.2
20260506170526 57 236 6.1 12.2 0.03 0.37 0.35 93 1006.1
20260506170027 57 233 5.2 12.2 0.03 0.36 0.34 93 1006.1
20260506165514 57 195 6.1 11.3 0.04 0.36 0.34 93 1006.2
20260506165020 57 224 7.0 10.4 0.06 0.36 0.34 93 1006.3
20260506164515 57 233 4.3 11.3 0.07 0.35 0.33 93 1006.3
20260506164015 57 225 6.1 11.3 0.08 0.35 0.33 92 1006.2
20260506163516 57 226 5.2 10.4 0.08 0.35 0.33 92 1006.2
20260506163015 57 197 4.3 8.7 0.10 0.35 0.33 93 1006.2
20260506162515 57 238 4.3 7.0 0.12 0.35 0.33 93 1006.4
20260506162015 57 209 3.5 7.0 0.14 0.35 0.33 93 1006.3
20260506161516 57 208 3.5 10.4 0.14 0.34 0.32 93 1006.5
20260506161016 57 297 5.2 10.4 0.15 0.34 0.32 93 1006.5
20260506160515 57 209 3.5 10.4 0.16 0.34 0.32 93 1006.7
20260506160015 57 223 7.0 10.4 0.16 0.33 0.31 93 1006.7
20260506155524 57 241 6.1 10.4 0.14 0.31 0.29 93 1006.8
20260506155016 57 208 4.3 10.4 0.13 0.30 0.28 93 1006.8
20260506154515 57 240 5.2 8.7 0.12 0.28 0.26 93 1006.9
20260506154015 57 206 3.5 8.7 0.11 0.27 0.25 93 1006.7
20260506153515 57 206 5.2 9.6 0.10 0.26 0.24 93 1006.9
20260506153015 57 228 4.3 10.4 0.10 0.25 0.23 93 1007.1
20260506152515 57 234 7.0 13.9 0.08 0.23 0.21 92 1007.1
20260506152038 57 232 7.8 13.9 0.07 0.21 0.19 92 1007.0
20260506151517 57 230 6.1 11.3 0.07 0.20 0.18 92 1006.9
20260506151015 57 211 5.2 9.6 0.05 0.18 0.16 92 1006.9
20260506150515 57 221 6.1 11.3 0.05 0.17 0.15 92 1006.9
20260506150015 57 214 6.1 12.2 0.05 0.17 0.15 92 1006.9
20260506145515 57 214 7.0 12.2 0.05 0.17 0.15 92 1006.7
20260506145017 57 195 4.3 13.0 0.05 0.16 0.14 92 1006.7
20260506144526 57 224 5.2 10.4 0.06 0.16 0.14 92 1006.8
20260506144015 57 216 5.2 13.0 0.07 0.16 0.14 92 1006.9
20260506143515 57 226 5.2 11.3 0.07 0.16 0.14 92 1006.9
20260506143015 57 222 2.6 9.6 0.06 0.15 0.13 92 1006.8
20260506142515 57 226 3.5 9.6 0.07 0.15 0.13 92 1006.8
20260506142026 57 207 1.7 7.0 0.07 0.14 0.12 92 1006.9
20260506141517 57 167 3.5 7.8 0.06 0.13 0.11 92 1007.1
20260506141015 57 210 3.5 9.6 0.07 0.13 0.11 92 1007.2
20260506140515 57 233 5.2 9.6 0.07 0.12 0.10 92 1007.2
20260506140026 57 202 5.2 8.7 0.08 0.12 0.10 92 1007.4
20260506135516 57 227 5.2 12.2 0.08 0.11 0.09 92 1007.4
20260506135015 57 229 4.3 8.7 0.09 0.11 0.09 92 1007.5
20260506134515 57 191 4.3 9.6 0.08 0.10 0.08 92 1007.6
20260506134016 57 233 5.2 9.6 0.07 0.09 0.07 92 1007.5
20260506133516 57 195 4.3 11.3 0.07 0.09 0.07 92 1007.5
20260506133016 57 233 4.3 13.0 0.06 0.08 0.06 91 1007.6
20260506132516 57 162 6.1 13.0 0.06 0.08 0.06 91 1007.7
20260506132015 57 229 7.0 11.3 0.05 0.07 0.05 91 1007.8
20260506131517 57 246 5.2 11.3 0.05 0.07 0.05 91 1007.9
20260506131016 57 231 6.1 10.4 0.04 0.06 0.04 90 1008.0
20260506130516 57 208 6.1 10.4 0.03 0.05 0.03 89 1007.9
20260506130017 58 217 5.2 12.2 0.02 0.04 0.02 88 1007.9
20260506125516 58 224 7.0 13.0 0.01 0.03 0.01 87 1007.8
20260506125016 58 219 7.8 13.0 0.00 0.02 0.00 86 1007.8
20260506124515 58 223 7.0 11.3 0.00 0.02 0.00 86 1007.7
20260506124016 58 213 7.0 13.0 0.00 0.02 0.00 85 1007.5
20260506123515 59 236 6.1 13.0 0.00 0.02 0.00 84 1007.4
20260506123027 59 221 5.2 9.6 0.00 0.02 0.00 84 1007.4
20260506122516 59 184 5.2 9.6 0.00 0.02 0.00 83 1007.3
20260506122016 59 221 3.5 11.3 0.00 0.02 0.00 83 1007.2
20260506121516 59 225 6.1 12.2 0.00 0.02 0.00 82 1007.4
20260506121027 59 220 6.1 13.0 0.00 0.02 0.00 82 1007.4
20260506120516 59 174 5.2 11.3 0.00 0.02 0.00 81 1007.5
20260506120017 59 177 3.5 11.3 0.00 0.02 0.00 80 1007.5
20260506115516 59 252 4.3 13.0 0.00 0.02 0.00 80 1007.5
20260506115016 60 200 5.2 13.0 0.00 0.02 0.00 79 1007.5
20260506114517 60 230 4.3 9.6 0.00 0.02 0.00 79 1007.6
20260506114016 60 245 4.3 8.7 0.00 0.02 0.00 78 1007.5
20260506113516 60 210 3.5 11.3 0.00 0.02 0.00 78 1007.4
20260506113016 60 228 5.2 11.3 0.00 0.02 0.00 77 1007.5
20260506112516 60 244 4.3 10.4 0.00 0.02 0.00 77 1007.4
20260506112017 60 191 5.2 10.4 0.00 0.02 0.00 77 1007.3
20260506111528 60 229 3.5 8.7 0.00 0.02 0.00 77 1007.3
20260506111017 60 209 2.6 10.4 0.00 0.02 0.00 77 1007.2
20260506110516 60 233 4.3 10.4 0.00 0.02 0.00 76 1007.3
20260506110016 60 210 7.0 10.4 0.00 0.02 0.00 75 1007.4
20260506105516 60 233 2.6 9.6 0.00 0.02 0.00 74 1007.2
20260506105016 60 232 5.2 9.6 0.00 0.02 0.00 74 1007.3
20260506104516 61 217 5.2 9.6 0.00 0.02 0.00 74 1007.1
20260506104016 61 227 3.5 11.3 0.00 0.02 0.00 73 1006.8
20260506103529 61 230 4.3 11.3 0.00 0.02 0.00 73 1006.7
20260506103016 61 188 4.3 10.4 0.00 0.02 0.00 73 1006.8
20260506102517 61 221 4.3 12.2 0.00 0.02 0.00 72 1006.9
20260506102027 61 270 4.3 12.2 0.00 0.02 0.00 72 1007.0
20260506101517 61 198 5.2 8.7 0.00 0.02 0.00 72 1006.8
20260506101028 61 214 4.3 8.7 0.00 0.02 0.00 71 1006.6
20260506100517 61 262 3.5 14.8 0.00 0.02 0.00 71 1006.8
20260506100017 61 221 5.2 14.8 0.00 0.02 0.00 70 1007.1
20260506095517 61 238 3.5 8.7 0.00 0.02 0.00 70 1007.0
20260506095017 61 219 5.2 7.8 0.00 0.02 0.00 70 1007.1
20260506094529 61 281 4.3 7.8 0.00 0.02 0.00 70 1007.2
20260506094017 61 219 4.3 7.8 0.00 0.02 0.00 70 1007.0
20260506093517 61 226 3.5 8.7 0.00 0.02 0.00 69 1007.0
20260506093017 61 216 4.3 10.4 0.00 0.02 0.00 69 1006.9
20260506092540 60 217 4.3 10.4 0.00 0.02 0.00 69 1006.9
20260506092018 61 209 3.5 7.8 0.00 0.02 0.00 68 1007.1
20260506091518 61 243 3.5 7.8 0.00 0.02 0.00 68 1007.2
20260506091018 61 240 5.2 7.8 0.00 0.02 0.00 67 1007.1
20260506090517 61 232 3.5 8.7 0.00 0.02 0.00 67 1007.2
20260506090018 61 205 5.2 9.6 0.00 0.02 0.00 66 1007.4
20260506085518 61 230 4.3 9.6 0.00 0.02 0.00 66 1007.2
20260506085019 61 161 3.5 9.6 0.00 0.02 0.00 66 1007.1
20260506084529 61 210 5.2 11.3 0.00 0.02 0.00 65 1007.5
20260506084018 61 250 6.1 11.3 0.00 0.02 0.00 65 1007.5
20260506083518 62 233 4.3 10.4 0.00 0.02 0.00 65 1007.5
20260506083018 62 217 5.2 9.6 0.00 0.02 0.00 64 1007.4
20260506082529 62 229 4.3 12.2 0.00 0.02 0.00 64 1007.2
20260506082018 62 217 6.1 12.2 0.00 0.02 0.00 64 1007.5
20260506081518 62 253 4.3 8.7 0.00 0.02 0.00 63 1007.4
20260506081018 62 232 3.5 9.6 0.00 0.02 0.00 63 1007.4
20260506080518 62 229 4.3 7.0 0.00 0.02 0.00 62 1007.3
20260506073519 62 226 7.0 13.9 0.00 0.02 0.00 60 1007.5
20260506073018 62 217 4.3 9.6 0.00 0.02 0.00 60 1007.5
20260506072519 62 239 5.2 9.6 0.00 0.02 0.00 60 1007.5
20260506072018 63 229 5.2 14.8 0.00 0.02 0.00 59 1007.5
20260506071518 63 217 7.8 14.8 0.00 0.02 0.00 59 1007.6
20260506071030 63 231 5.2 13.9 0.00 0.02 0.00 59 1007.6
20260506070518 63 238 6.1 12.2 0.00 0.02 0.00 58 1007.5
20260506062019 62 243 3.5 11.3 0.00 0.02 0.00 59 1007.9
20260506061520 62 237 4.3 9.6 0.00 0.02 0.00 59 1007.9
20260506061017 62 232 4.3 8.7 0.00 0.02 0.00 59 1008.1
20260506060518 62 212 3.5 7.8 0.00 0.02 0.00 59 1008.2
20260506051019 62 255 4.3 11.3 0.00 0.02 0.00 57 1008.4
20260506050518 62 223 3.5 7.8 0.00 0.02 0.00 57 1008.4
20260506045019 62 206 2.6 10.4 0.00 0.02 0.00 57 1008.5
20260506044519 62 168 3.5 7.0 0.00 0.02 0.00 57 1008.6
20260506044018 62 223 1.7 6.1 0.00 0.02 0.00 57 1008.7
20260506043519 62 246 1.7 6.1 0.00 0.02 0.00 57 1008.6
20260506043019 62 247 2.6 4.3 0.00 0.02 0.00 57 1008.7
20260506042519 63 200 2.6 6.1 0.00 0.02 0.00 56 1008.7
20260506042019 63 251 2.6 6.1 0.00 0.02 0.00 56 1008.5
20260506041521 63 232 2.6 5.2 0.00 0.02 0.00 56 1008.6
20260506041032 63 266 2.6 5.2 0.00 0.02 0.00 56 1008.7
20260506040519 63 242 2.6 4.3 0.00 0.02 0.00 56 1008.7
20260506040020 63 197 2.6 4.3 0.00 0.02 0.00 56 1008.7
20260506035520 63 231 2.6 4.3 0.00 0.02 0.02 56 1008.6
20260506035019 63 231 2.6 5.2 0.00 0.02 0.02 56 1008.8
20260506034519 63 231 1.7 7.0 0.00 0.02 0.02 55 1008.6
20260506034041 64 222 3.5 7.0 0.00 0.02 0.02 55 1008.7
20260506033519 64 229 3.5 7.0 0.00 0.02 0.02 55 1008.8
20260506033021 64 265 2.6 4.3 0.00 0.02 0.02 55 1008.7
20260506032530 64 212 2.6 4.3 0.00 0.02 0.02 54 1008.7
20260506032019 64 248 1.7 4.3 0.00 0.02 0.02 54 1008.7
20260506031520 65 219 2.6 3.5 0.00 0.02 0.02 54 1008.7
20260506031041 65 229 1.7 6.1 0.00 0.02 0.02 54 1008.6
20260506030531 65 229 2.6 6.1 0.00 0.02 0.02 53 1008.7
20260506030019 65 223 4.3 6.1 0.00 0.02 0.02 53 1008.8
20260506025519 65 236 4.3 6.1 0.00 0.02 0.02 53 1008.6
20260506025019 65 226 2.6 6.1 0.00 0.02 0.02 53 1008.6
20260506024519 66 220 4.3 7.0 0.00 0.02 0.02 52 1008.5
20260506024019 66 214 4.3 8.7 0.00 0.02 0.02 52 1008.5
20260506023531 66 240 4.3 8.7 0.00 0.02 0.02 51 1008.7
20260506023019 67 235 5.2 9.6 0.00 0.02 0.02 51 1008.6
20260506022519 67 236 5.2 9.6 0.00 0.02 0.02 51 1008.7
20260506022030 67 238 6.1 8.7 0.00 0.02 0.02 51 1008.8
20260506021531 67 226 5.2 9.6 0.00 0.02 0.02 50 1008.8
20260506021019 67 233 4.3 9.6 0.00 0.02 0.02 50 1008.7
20260506020542 67 240 4.3 9.6 0.00 0.02 0.02 50 1008.8
20260506020018 68 210 5.2 8.7 0.00 0.02 0.02 50 1008.8
20260506015519 68 235 5.2 8.7 0.00 0.02 0.02 50 1008.6
20260506015019 68 225 4.3 8.7 0.00 0.02 0.02 49 1008.8
20260506014520 68 260 3.5 7.8 0.00 0.02 0.02 49 1008.7
20260506014043 68 193 4.3 10.4 0.00 0.02 0.02 49 1008.6
20260506013519 68 248 4.3 12.2 0.00 0.02 0.02 49 1008.5
20260506013012 68 236 5.2 9.6 0.00 0.02 0.02 49 1008.5
20260506012512 68 226 2.6 7.8 0.00 0.02 0.02 49 1008.4
20260506012012 68 242 3.5 7.8 0.00 0.02 0.02 48 1008.4
20260506011513 68 219 5.2 7.8 0.00 0.02 0.02 48 1008.4
20260506011025 69 213 3.5 9.6 0.00 0.02 0.02 47 1008.3
20260506010513 69 243 5.2 9.6 0.00 0.02 0.02 46 1008.2
20260506010013 69 236 4.3 7.8 0.00 0.02 0.02 46 1008.2
20260506005513 70 224 4.3 9.6 0.00 0.02 0.02 45 1008.2
20260506005012 70 232 4.3 9.6 0.00 0.02 0.02 44 1008.1
20260506004524 70 229 5.2 9.6 0.00 0.02 0.02 44 1008.0
20260506004013 70 259 3.5 7.0 0.00 0.02 0.02 44 1008.0
20260506003513 70 238 3.5 10.4 0.00 0.02 0.02 44 1008.1
20260506003013 70 276 7.0 10.4 0.00 0.02 0.02 43 1007.9
20260506002514 70 221 6.1 11.3 0.00 0.02 0.02 44 1007.8
20260506002023 70 230 5.2 11.3 0.00 0.02 0.02 44 1007.7
20260506001524 70 216 5.2 13.0 0.00 0.02 0.02 44 1007.6
20260506001024 71 224 6.1 15.6 0.00 0.02 0.02 43 1007.7
20260506000525 71 226 9.6 15.6 0.00 0.02 0.02 43 1007.7
20260505235012 71 215 7.0 12.2 0.00 0.02 0.02 44 1007.6
20260505234513 71 241 7.0 11.3 0.00 0.02 0.02 43 1007.7
20260505234014 71 240 7.8 10.4 0.00 0.02 0.02 44 1007.5
20260505233513 70 234 6.1 12.2 0.00 0.02 0.02 44 1007.6
20260505233024 71 230 6.1 12.2 0.00 0.02 0.02 45 1007.4
20260505232513 71 221 5.2 14.8 0.00 0.02 0.02 45 1007.5
20260505232024 71 224 7.8 13.0 0.00 0.02 0.02 45 1007.3
20260505231512 71 226 7.8 13.0 0.00 0.02 0.02 45 1007.5
20260505231013 71 242 7.8 12.2 0.00 0.02 0.02 44 1007.5
20260505230513 71 202 7.0 11.3 0.00 0.02 0.02 45 1007.4
20260505230013 71 233 4.3 11.3 0.00 0.02 0.02 46 1007.5
20260505225513 71 240 5.2 10.4 0.00 0.02 0.02 46 1007.5
20260505225024 71 219 6.1 13.9 0.00 0.02 0.02 45 1007.4
20260505224513 71 202 6.1 11.3 0.00 0.02 0.02 45 1007.2
20260505224013 71 255 7.0 13.0 0.00 0.02 0.02 45 1007.1
20260505223524 70 210 4.3 10.4 0.00 0.02 0.02 46 1007.0
20260505223013 70 225 6.1 10.4 0.00 0.02 0.02 46 1007.0
20260505222514 70 236 5.2 8.7 0.00 0.02 0.02 46 1007.2
20260505222013 70 221 4.3 10.4 0.00 0.02 0.02 46 1007.3
20260505221514 71 230 6.1 12.2 0.00 0.02 0.02 46 1007.3
20260505221013 71 226 5.2 13.0 0.00 0.02 0.02 46 1007.2
20260505220513 71 243 7.8 16.5 0.00 0.02 0.02 45 1007.2
20260505220024 71 198 9.6 19.1 0.00 0.02 0.02 45 1007.2
20260505215514 70 229 7.0 13.0 0.02 0.02 0.02 46 1007.2
20260505215013 70 233 6.1 13.0 0.02 0.02 0.02 47 1007.2
20260505214513 70 236 7.8 13.0 0.02 0.02 0.02 47 1007.2
20260505214013 70 219 7.0 14.8 0.02 0.02 0.02 49 1007.2
20260505213514 69 217 8.7 14.8 0.02 0.02 0.02 51 1007.0
20260505212514 68 242 2.6 7.8 0.02 0.02 0.02 63 1006.9